Temp
85 86 86 86 86 85 83 82 82 82 82 83 83 84 85 86 87 88 87 87 88 87 86 89 88 87 86 84 81 81 76 71 73 81 81 85 85 84 87 88 87 84 85
83 84 85 85 84 84 82 82 82 82 82 84 84 86 86 87 88 89 87 87 87 87 86 86 87 86 86 83 80 75 70 70 69 66 71 72 78 84 84 82 81 79 84
82 82 82 83 85 84 82 82 82 82 82 83 84 83 83 83 84 85 86 87 86 86 86 86 86 86 84 84 75 72 72 66 65 68 66 67 66 71 78 77 77 75 79
84 84 83 83 84 85 86 84 83 82 83 82 83 81 83 83 86 86 88 87 86 86 86 85 86 85 87 81 75 75 72 71 67 69 69 71 71 68 66 72 73 75 77
85 85 85 85 86 87 87 86 83 82 83 82 82 83 81 86 87 87 83 83 84 85 87 86 86 85 87 80 76 74 71 71 69 66 68 70 71 70 68 67 68 71 79
86 86 87 87 86 88 88 87 83 80 82 81 81 81 81 82 84 83 84 86 88 88 85 86 85 86 86 79 78 77 74 72 69 70 68 70 70 73 70 68 69 70 77
86 86 85 85 85 86 87 87 83 80 82 82 82 81 81 81 81 82 85 84 87 87 86 84 84 86 84 80 79 77 74 72 72 75 70 73 75 76 74 68 63 63 76
87 86 87 87 86 87 86 86 84 81 82 82 81 81 82 84 85 84 86 86 87 88 87 85 86 86 86 81 79 79 78 72 72 75 74 76 75 75 75 65 60 70 75
87 87 88 89 88 87 86 86 85 82 83 82 82 81 81 81 84 83 84 86 85 87 85 85 85 85 86 82 80 81 78 75 75 75 76 75 77 77 75 66 67 73 69
89 89 88 88 90 90 89 88 87 84 84 83 83 83 82 82 82 83 82 83 84 83 84 84 84 85 85 81 79 79 78 75 74 77 76 75 77 75 73 68 74 75 73
90 91 91 89 90 92 91 89 87 86 84 84 84 83 83 83 82 83 83 83 83 83 82 83 83 83 82 79 77 77 77 73 75 76 74 75 75 73 75 76 76 75 74
93 92 93 93 90 91 90 89 88 86 85 84 83 83 83 83 82 82 83 84 82 83 82 82 82 82 80 77 73 72 73 72 75 77 74 75 75 74 75 77 73 74 73
89 90 91 90 88 89 88 87 87 87 87 85 83 82 82 81 81 82 82 83 82 83 83 82 81 81 78 71 70 71 70 74 75 77 77 76 75 74 76 76 75 75 73
86 86 85 85 85 85 85 86 87 89 87 85 83 82 82 82 83 83 83 82 83 83 82 82 82 82 76 70 68 71 71 73 76 77 77 77 76 75 73 74 72 71 69
86 85 84 83 83 83 84 85 86 86 86 84 83 82 84 84 84 83 83 84 83 83 83 82 82 82 78 76 72 73 73 75 76 76 77 77 73 67 69 75 70 67 69
87 87 85 84 82 82 83 84 84 84 85 84 83 84 83 83 82 83 83 82 82 82 82 82 82 76 76 65 66 72 76 77 75 68 70 73 69 66 64 64 63 64 64
93 87 85 84 82 83 84 84 85 85 83 83 84 83 83 82 82 82 82 82 81 82 81 78 74 73 75 62 64 68 79 73 68 70 73 75 73 69 71 62 62 63 60
92 91 88 86 86 86 84 85 85 82 83 83 83 83 82 82 82 81 80 81 81 79 76 73 73 73 70 62 62 66 72 73 75 74 73 71 69 68 69 68 68 68 68
92 90 89 87 85 85 84 83 83 83 83 83 82 82 82 81 81 80 80 80 78 75 73 74 73 70 66 60 60 70 75 73 72 71 70 70 68 58 59 67 65 66 66
88 90 89 87 86 84 83 82 82 82 81 83 82 82 82 82 81 81 78 78 74 72 72 71 72 66 70 57 59 70 76 70 69 68 66 61 64 56 56 65 64 63 63
86 89 87 87 86 83 82 82 81 81 82 82 82 82 82 81 82 78 75 73 71 69 68 68 73 74 71 64 57 60 75 72 72 71 70 69 54 51 51 55 63 59 60
87 86 84 83 82 82 82 80 80 80 82 81 80 79 79 78 77 74 71 69 68 68 67 68 68 70 69 59 54 56 61 64 71 70 71 64 50 49 50 59 50 52 60
84 84 84 81 81 82 83 78 75 79 79 79 77 76 76 75 74 71 69 67 68 67 67 70 69 67 71 69 53 54 55 58 69 71 60 51 49 50 55 51 52 59 68
80 82 82 80 80 82 82 76 77 80 77 75 73 72 71 70 70 70 69 67 66 66 71 69 68 72 71 71 71 69 66 59 65 58 63 58 58 54 60 64 65 67 66
80 82 81 79 75 76 74 75 76 77 73 70 68 67 66 63 58 54 62 71 74 73 75 75 75 72 71 71 65 66 71 72 64 64 67 68 67 66 66 66 66 67 67
79 79 78 76 74 75 74 74 75 75 72 70 68 67 68 67 64 62 58 49 51 49 50 55 68 70 57 48 46 46 48 48 50 68 68 66 66 65 65 65 65 66 64
MSLP
1010.82 1011.54 1012.21 1012.75 1013.21 1013.73 1014.37 1014.87 1015.27 1015.61 1016.09 1016.41 1016.58 1016.69 1016.65 1016.79 1016.86 1016.83 1016.95 1017.13 1017.36 1017.72 1017.96 1017.83 1017.86 1018.12 1018.34 1018.73 1019.06 1019.35 1020.06 1020.44 1020.18 1019.15 1018.15 1017.44 1017.43 1017.40 1017.51 1017.35 1017.25 1017.17 1017.06
1010.31 1010.85 1011.40 1012.05 1012.58 1013.01 1013.55 1014.18 1014.61 1015.11 1015.59 1015.89 1016.13 1016.25 1016.33 1016.39 1016.36 1016.39 1016.62 1016.83 1017.03 1017.33 1017.57 1017.64 1017.60 1017.81 1018.17 1018.63 1019.12 1019.69 1020.62 1020.56 1019.92 1019.86 1019.14 1017.88 1017.30 1017.18 1017.40 1017.57 1017.72 1017.62 1017.25
1009.23 1009.86 1010.51 1011.11 1011.71 1012.23 1012.80 1013.39 1013.92 1014.39 1014.94 1015.35 1015.85 1016.18 1016.40 1016.36 1016.27 1016.27 1016.33 1016.25 1016.63 1016.89 1017.21 1017.34 1017.38 1017.58 1017.97 1018.19 1019.48 1019.93 1020.64 1020.55 1019.25 1020.15 1020.39 1019.66 1018.70 1018.15 1017.46 1017.34 1017.65 1017.65 1017.47
1008.44 1008.89 1009.55 1010.20 1010.71 1011.26 1011.88 1012.45 1013.09 1013.71 1014.25 1014.77 1015.17 1015.38 1015.35 1015.30 1015.22 1015.50 1015.59 1015.71 1016.04 1016.28 1016.63 1016.88 1017.01 1017.32 1017.21 1018.15 1019.22 1019.27 1019.77 1019.84 1019.64 1019.95 1019.15 1019.11 1019.16 1018.86 1017.86 1017.43 1017.43 1017.42 1017.29
1007.23 1007.69 1008.22 1008.92 1009.62 1010.32 1010.90 1011.47 1012.24 1012.91 1013.43 1014.01 1014.38 1014.70 1014.85 1014.61 1014.80 1015.10 1015.33 1015.44 1015.57 1015.79 1015.98 1016.27 1016.55 1016.81 1016.93 1017.77 1018.33 1018.67 1018.85 1018.82 1017.25 1017.85 1018.33 1018.46 1018.44 1018.52 1018.66 1017.58 1017.50 1017.46 1017.03
1005.94 1006.65 1007.40 1008.29 1008.73 1009.34 1009.94 1010.59 1011.37 1011.93 1012.61 1013.17 1013.63 1013.89 1013.95 1014.01 1014.23 1014.46 1014.54 1014.64 1014.91 1015.20 1015.49 1015.75 1016.00 1016.23 1016.37 1017.05 1017.53 1017.82 1018.06 1017.57 1018.36 1018.00 1017.96 1017.84 1017.74 1017.50 1017.75 1017.83 1017.57 1017.07 1016.48
1004.73 1005.44 1006.36 1007.15 1007.78 1008.37 1009.01 1009.70 1010.52 1011.07 1011.70 1012.30 1012.75 1013.04 1013.15 1013.43 1013.53 1013.69 1013.72 1013.94 1014.20 1014.48 1014.81 1015.22 1015.51 1015.72 1015.60 1016.39 1016.68 1016.93 1017.02 1016.98 1016.66 1016.90 1017.51 1017.45 1017.12 1017.22 1017.53 1017.98 1018.07 1017.42 1016.23
1003.13 1003.97 1004.73 1005.64 1006.49 1007.22 1008.07 1008.87 1009.54 1010.15 1010.78 1011.34 1011.73 1012.13 1012.43 1012.61 1012.69 1012.88 1012.96 1013.23 1013.55 1013.82 1014.37 1014.73 1014.84 1014.92 1015.07 1015.76 1016.06 1016.23 1016.24 1016.72 1017.07 1017.53 1017.57 1017.10 1017.00 1017.25 1017.46 1017.93 1018.32 1017.27 1016.05
1001.69 1002.56 1003.43 1004.37 1005.11 1006.09 1006.91 1007.69 1008.48 1009.07 1009.64 1010.13 1010.72 1011.14 1011.45 1011.74 1011.64 1011.96 1012.40 1012.66 1013.09 1013.55 1014.09 1014.33 1014.24 1014.73 1014.93 1015.36 1015.75 1016.06 1016.35 1017.00 1017.00 1017.03 1016.99 1017.01 1016.67 1017.00 1017.27 1017.53 1017.59 1016.98 1016.06
1000.76 1001.62 1002.53 1003.27 1004.10 1004.86 1005.72 1006.75 1007.40 1007.90 1008.35 1009.00 1009.67 1010.08 1010.37 1010.79 1011.12 1011.54 1011.63 1011.87 1012.37 1013.15 1013.54 1013.76 1014.13 1014.27 1014.44 1014.82 1015.33 1015.72 1016.03 1015.66 1016.18 1016.77 1016.79 1016.69 1016.58 1016.64 1016.95 1017.15 1016.95 1016.90 1016.63
999.65 1000.40 1001.40 1002.55 1003.39 1004.10 1004.95 1005.71 1006.44 1006.96 1007.62 1008.15 1008.65 1009.21 1009.61 1010.10 1010.52 1010.75 1010.90 1011.17 1011.77 1012.49 1012.87 1013.08 1013.56 1013.65 1014.09 1014.83 1016.13 1016.50 1016.51 1016.62 1016.38 1016.30 1016.29 1016.51 1016.63 1016.56 1016.70 1016.51 1016.68 1016.58 1016.60
998.94 999.95 1000.75 1001.76 1002.73 1003.31 1003.98 1004.71 1005.32 1005.93 1006.38 1007.10 1007.89 1008.35 1008.93 1009.31 1009.37 1009.49 1009.75 1010.17 1010.67 1011.49 1012.11 1012.43 1012.85 1013.40 1014.15 1015.86 1017.02 1017.18 1016.51 1016.03 1016.52 1016.09 1015.85 1016.22 1016.61 1016.47 1016.87 1016.56 1016.53 1016.41 1016.66
998.94 999.68 1000.41 1000.95 1001.73 1002.51 1003.33 1003.73 1004.29 1004.77 1005.61 1006.53 1007.12 1007.73 1007.97 1008.05 1008.10 1008.57 1009.04 1009.41 1009.89 1010.66 1011.47 1011.86 1012.20 1012.86 1013.97 1014.63 1013.37 1013.75 1015.00 1015.80 1016.12 1015.46 1015.36 1016.10 1016.29 1016.15 1016.54 1016.06 1015.87 1016.17 1016.58
999.02 999.55 1000.21 1000.72 1001.47 1002.01 1002.52 1003.03 1003.51 1004.22 1005.04 1005.79 1006.26 1006.53 1006.69 1006.95 1007.39 1007.80 1008.22 1008.70 1009.42 1010.16 1010.79 1011.00 1011.39 1012.34 1012.93 1013.23 1013.45 1014.16 1015.13 1015.27 1015.32 1014.87 1015.55 1016.13 1015.86 1016.06 1016.36 1015.91 1016.24 1016.54 1016.69
998.75 999.18 999.75 1000.14 1000.83 1001.49 1002.00 1002.58 1003.05 1003.71 1004.29 1004.81 1005.17 1005.25 1005.86 1006.35 1006.79 1007.42 1007.92 1008.34 1008.92 1009.57 1010.11 1010.42 1010.87 1011.43 1012.29 1012.70 1013.34 1013.83 1014.41 1014.67 1014.47 1015.00 1015.71 1015.71 1016.09 1016.59 1016.42 1016.25 1016.69 1017.03 1016.97
998.14 998.45 999.15 999.90 1000.28 1000.59 1000.96 1001.73 1002.29 1002.81 1003.52 1003.97 1004.25 1005.03 1005.51 1006.03 1006.54 1006.99 1007.43 1007.89 1008.40 1009.11 1009.72 1010.09 1010.42 1010.91 1011.53 1012.25 1012.83 1013.19 1013.64 1014.12 1014.67 1015.50 1015.80 1016.16 1016.51 1016.76 1016.95 1017.09 1017.23 1017.39 1017.43
997.10 997.61 998.09 998.50 999.06 999.53 1000.06 1000.63 1001.59 1002.60 1003.05 1003.27 1003.77 1004.47 1005.12 1005.73 1006.19 1006.68 1007.04 1007.41 1007.95 1008.53 1009.13 1009.73 1010.53 1010.83 1011.18 1011.93 1012.80 1013.10 1013.61 1014.37 1014.84 1015.53 1015.83 1016.08 1016.70 1016.95 1017.06 1017.32 1017.47 1017.51 1017.70
996.39 996.72 997.39 997.64 998.08 998.92 999.71 1000.53 1001.32 1001.90 1002.23 1002.73 1003.44 1004.15 1004.72 1005.30 1005.83 1006.24 1006.65 1007.10 1007.68 1008.28 1009.03 1009.98 1010.44 1010.84 1011.70 1012.35 1013.07 1013.33 1013.96 1014.64 1015.09 1015.58 1015.94 1016.48 1017.03 1017.26 1017.30 1017.41 1017.46 1017.42 1017.37
996.04 996.11 996.84 997.39 997.98 998.56 999.20 999.90 1000.57 1001.12 1001.80 1002.40 1003.08 1003.67 1004.29 1004.92 1005.59 1006.12 1006.59 1006.94 1007.42 1008.21 1009.15 1009.83 1010.40 1011.31 1012.29 1012.54 1013.16 1013.58 1014.17 1014.87 1015.53 1016.11 1016.53 1016.90 1017.25 1017.61 1017.84 1017.78 1017.66 1017.48 1017.33
996.04 996.37 996.75 997.23 997.45 997.91 998.79 999.45 1000.18 1000.98 1001.50 1002.05 1002.77 1003.45 1003.96 1004.64 1005.37 1005.99 1006.55 1007.01 1007.61 1008.41 1009.35 1010.21 1010.93 1011.82 1012.35 1013.13 1013.59 1014.02 1014.48 1015.19 1016.00 1016.61 1017.08 1017.42 1017.67 1018.11 1018.37 1018.22 1018.03 1017.73 1017.61
996.14 996.43 996.81 997.04 997.41 998.10 998.83 999.57 1000.16 1000.90 1001.45 1002.21 1002.85 1003.35 1004.13 1004.83 1005.47 1006.25 1007.02 1007.71 1008.33 1008.97 1009.86 1010.71 1011.45 1012.09 1013.00 1013.83 1014.11 1014.47 1014.75 1015.27 1015.66 1016.23 1016.97 1017.77 1018.25 1018.61 1018.77 1018.64 1018.37 1018.27 1017.88
996.07 996.32 996.93 997.23 997.67 998.37 999.06 999.90 1000.39 1001.14 1001.87 1002.41 1002.73 1003.84 1004.65 1005.20 1005.96 1006.77 1007.65 1008.37 1008.96 1009.60 1010.41 1011.11 1012.04 1013.04 1013.47 1014.26 1014.73 1014.84 1014.98 1015.42 1015.65 1016.33 1017.20 1018.25 1018.74 1018.91 1019.01 1018.82 1018.57 1018.13 1017.36
996.22 996.47 996.97 997.65 998.12 998.71 999.22 1000.14 1001.06 1001.59 1001.81 1002.17 1003.45 1004.38 1005.09 1005.73 1006.52 1007.30 1008.19 1008.93 1009.48 1010.17 1011.01 1011.34 1012.28 1013.33 1013.88 1014.77 1015.20 1015.43 1015.71 1016.08 1016.32 1016.87 1017.73 1018.54 1018.96 1018.99 1018.90 1018.86 1018.65 1017.99 1017.48
996.75 996.72 997.15 997.71 998.52 999.08 999.77 1000.69 1000.93 1001.17 1001.75 1002.99 1004.05 1004.95 1005.66 1006.53 1007.32 1007.96 1008.85 1009.36 1009.81 1010.57 1011.06 1011.86 1012.69 1013.31 1014.15 1014.91 1015.59 1016.03 1016.43 1016.62 1016.95 1017.67 1018.32 1018.74 1018.89 1019.00 1018.93 1018.45 1018.35 1018.16 1018.15
997.23 997.36 997.73 998.48 999.23 999.79 1000.38 1000.76 1001.08 1001.60 1002.69 1003.85 1004.83 1005.74 1006.63 1007.36 1008.28 1009.18 1009.97 1009.92 1010.03 1010.33 1010.69 1011.54 1012.19 1013.02 1014.04 1014.81 1015.27 1015.68 1016.16 1016.55 1017.18 1017.84 1018.29 1018.33 1018.37 1018.25 1018.35 1018.45 1018.50 1018.31 1018.05
997.98 997.95 998.45 998.95 999.60 1000.14 1000.66 1001.22 1001.85 1002.49 1003.33 1004.48 1005.51 1006.26 1006.90 1007.80 1008.68 1009.47 1010.47 1011.13 1011.08 1011.12 1011.52 1012.01 1012.29 1013.58 1014.05 1015.00 1015.81 1016.34 1016.63 1017.07 1017.55 1017.53 1017.71 1018.00 1018.21 1018.27 1018.30 1018.47 1018.58 1018.68 1018.53
Wind_Speed
20 19 18 17 17 15 14 14 13 12 10 8 8 7 7 7 7 6 8 6 5 5 4 4 4 3 3 2 3 3 11 7 10 7 9 3 1 4 2 1 2 4 5
18 19 19 19 17 17 16 15 15 13 12 9 8 7 6 7 8 7 8 8 8 7 5 5 4 3 3 2 2 11 6 4 6 3 8 4 4 2 4 1 0 3 4
20 20 20 20 19 18 17 16 16 15 14 13 8 6 5 5 6 7 8 10 10 9 8 7 5 3 4 2 13 13 11 3 5 4 3 5 3 9 4 3 3 1 3
19 18 19 20 20 19 17 17 16 15 14 14 11 12 11 11 11 9 9 9 10 10 9 8 7 5 4 6 12 11 8 4 2 1 8 10 5 5 5 2 3 3 5
22 21 21 21 20 20 18 17 16 15 15 14 15 12 13 11 10 9 10 9 8 9 9 8 7 7 6 11 14 14 11 6 4 5 5 6 5 9 9 8 3 3 5
24 22 20 18 18 19 19 18 17 16 16 16 17 16 15 13 11 11 10 9 8 7 8 9 9 8 6 13 14 14 13 9 3 4 6 7 6 4 6 6 6 6 4
23 22 22 20 19 20 20 17 17 16 17 17 17 17 17 15 15 14 12 11 9 8 9 9 9 7 8 13 14 14 14 11 10 8 6 7 7 7 6 3 1 5 5
24 24 25 22 21 22 21 19 18 17 17 17 17 15 16 13 13 13 12 11 10 9 8 9 9 10 9 13 14 12 12 9 8 9 7 5 6 5 5 3 3 8 6
23 25 24 23 21 21 21 21 19 17 17 18 15 16 15 16 14 15 12 11 11 10 8 10 10 10 10 13 14 10 12 9 8 8 8 6 4 4 5 4 5 5 9
21 21 20 21 20 21 20 21 20 19 19 19 16 15 16 15 14 13 14 13 11 11 10 10 9 10 9 12 11 8 9 10 5 6 8 7 3 4 5 4 5 5 7
20 21 20 19 20 19 19 20 20 19 17 17 16 16 14 15 14 14 14 14 13 12 12 12 10 11 8 7 3 6 9 5 7 7 6 7 6 4 5 5 4 5 5
16 17 18 17 19 20 19 19 18 17 18 15 14 15 14 14 16 15 16 15 15 13 12 12 11 10 6 8 9 12 8 8 8 7 6 6 4 6 4 4 3 3 5
12 15 16 16 17 17 16 17 18 19 16 14 15 14 15 16 17 15 14 14 14 13 11 11 11 11 8 13 12 21 12 10 9 7 6 5 7 5 3 2 3 3 4
11 14 13 14 13 14 15 16 17 17 15 15 15 16 17 17 16 14 15 14 12 11 10 12 11 9 13 13 12 11 11 8 9 7 5 6 4 3 3 3 3 4 6
10 13 14 14 14 14 14 14 14 14 15 15 16 17 14 15 15 13 13 13 11 9 10 10 9 10 13 8 8 11 10 10 9 7 6 5 8 9 7 3 4 5 6
11 13 14 14 15 16 16 14 15 15 14 15 15 13 13 13 13 13 12 11 10 9 8 8 8 7 7 11 9 10 9 10 10 8 7 10 11 10 10 8 7 5 5
5 9 15 16 15 17 14 16 13 12 13 14 13 12 12 11 11 10 10 10 9 7 7 6 8 7 7 10 10 8 10 9 8 9 9 7 6 6 6 6 3 2 1
10 8 9 13 14 12 12 11 12 14 14 13 11 10 10 10 9 9 9 8 6 6 8 9 9 8 6 10 9 12 10 9 9 9 9 9 7 6 5 5 5 5 4
9 8 4 8 10 11 12 13 13 12 11 11 10 10 10 9 8 8 7 7 7 9 8 9 10 11 9 13 13 12 11 11 11 9 9 9 9 7 3 5 6 6 6
10 8 4 7 10 10 11 12 11 10 10 10 9 9 9 8 8 8 8 7 9 10 8 10 10 12 13 12 13 11 10 12 9 9 9 8 9 7 4 6 6 6 7
12 7 4 5 7 9 11 11 11 10 8 8 10 9 8 8 8 8 8 8 9 11 12 12 11 12 12 11 12 9 10 10 9 8 7 7 9 7 6 6 6 4 6
7 7 6 6 7 10 11 12 12 12 12 13 14 12 11 8 9 10 9 10 11 13 12 12 10 8 10 11 8 9 12 9 10 8 7 8 9 8 6 5 3 4 5
5 9 11 11 11 11 14 15 13 14 15 16 15 13 12 10 10 11 10 9 10 10 10 10 10 8 8 7 9 12 12 9 9 8 11 12 8 7 8 7 7 6 7
6 10 14 14 13 12 13 14 16 15 17 16 13 11 11 11 9 8 8 9 9 9 10 10 10 9 9 8 8 8 10 12 11 14 9 8 8 7 5 3 5 6 7
8 11 13 13 14 14 14 13 15 15 14 12 11 11 9 11 10 9 5 8 7 7 12 11 11 11 10 9 9 10 9 8 9 10 7 5 3 4 4 5 6 6 6
8 11 13 15 14 14 14 12 12 14 15 13 10 9 10 10 9 9 8 18 11 11 11 9 10 6 11 13 11 12 14 16 12 7 5 4 4 5 5 5 5 6 6
Wind_Direction
202 205 208 209 207 206 206 208 202 204 196 201 211 225 229 227 234 236 242 235 220 214 221 258 282 237 264 21 24 19 53 33 1 342 332 320 338 286 334 350 6 48 43
206 206 208 209 206 204 205 205 208 202 204 205 212 223 219 231 241 246 249 250 251 241 237 253 274 242 235 219 71 62 75 31 45 252 298 319 314 64 306 210 354 12 13
208 205 205 207 209 210 205 205 207 207 207 210 209 209 220 238 237 237 245 240 238 240 234 238 248 232 228 265 101 103 105 128 271 100 112 330 337 331 302 228 223 347 313
216 210 204 205 208 211 207 205 205 207 209 202 211 215 225 234 236 242 248 247 236 236 230 230 230 222 228 130 132 142 141 160 252 233 183 204 226 273 302 243 222 278 288
213 212 210 207 207 211 210 209 206 207 209 203 212 215 229 237 243 243 248 242 239 232 231 224 218 213 218 144 159 157 166 204 207 174 191 226 226 226 239 279 299 273 267
212 214 214 212 213 212 211 210 204 206 203 203 208 213 224 230 236 234 243 247 243 231 222 220 214 212 196 168 176 179 181 217 261 202 227 208 233 234 220 248 280 304 287
211 211 207 207 209 210 211 209 205 208 205 207 210 214 222 227 231 235 241 246 244 236 228 214 211 209 200 177 190 193 198 205 220 211 216 233 243 254 245 233 329 303 323
210 210 208 206 208 209 207 206 204 210 205 208 212 215 221 227 230 235 239 241 244 246 237 221 220 219 198 187 200 203 213 202 217 252 247 248 242 235 233 156 117 286 295
207 208 208 208 207 206 206 206 205 209 207 208 210 214 217 223 230 234 233 239 242 246 238 230 224 224 220 198 209 221 227 226 241 242 250 257 238 231 208 168 197 276 306
206 208 207 207 207 207 207 206 207 208 207 208 209 215 218 222 228 233 234 237 238 230 234 231 229 233 227 207 213 229 241 221 230 240 264 242 212 218 189 184 215 239 276
202 204 204 206 206 209 207 208 209 210 208 210 212 217 220 224 228 232 235 235 233 223 221 228 226 230 219 197 188 265 271 252 231 229 249 228 215 208 203 200 212 242 271
199 197 199 195 201 205 207 206 209 210 210 206 209 214 217 220 224 224 227 226 225 218 219 227 222 221 207 100 40 341 281 236 232 242 197 217 203 180 216 207 218 304 296
187 184 193 198 199 200 201 205 206 213 210 204 207 211 215 218 225 227 227 226 225 223 214 222 224 211 148 127 124 233 243 235 249 194 168 198 181 185 194 210 2 320 300
186 183 188 195 199 195 199 205 210 212 208 203 207 211 216 219 225 226 226 230 229 226 212 217 223 191 163 153 203 217 233 206 205 141 148 178 171 159 177 52 13 327 320
207 194 197 197 197 199 200 205 210 200 200 202 209 216 221 223 228 232 233 237 234 224 213 220 216 196 181 196 178 189 193 189 144 112 145 117 93 84 64 14 24 351 335
211 211 207 205 205 203 203 199 202 201 195 204 215 215 219 222 225 228 229 230 230 222 212 210 214 171 190 146 163 160 155 146 137 123 110 112 107 91 75 73 56 38 343
232 208 212 206 205 204 198 203 196 190 198 208 210 209 212 218 223 222 222 228 227 207 196 153 149 163 168 135 126 138 146 139 112 138 127 123 100 93 93 86 91 110 48
280 248 227 216 208 195 191 182 182 191 202 207 207 204 204 213 213 206 209 213 206 184 130 144 156 140 114 121 139 122 115 124 132 127 124 116 113 88 79 51 34 29 18
254 267 252 222 189 186 175 179 187 195 197 199 198 192 193 193 195 195 192 189 164 121 130 139 130 123 138 130 125 132 134 119 111 112 114 116 107 93 63 50 32 23 18
269 276 270 208 185 176 171 171 175 178 188 186 182 177 171 174 179 175 173 142 124 121 114 105 119 126 134 123 125 137 128 122 119 115 106 79 96 102 46 53 25 17 8
266 254 208 199 173 155 157 157 150 165 151 147 147 127 134 145 144 124 115 119 114 105 105 107 121 124 132 133 118 129 134 133 132 125 121 102 106 98 70 41 34 10 320
220 173 164 136 126 139 138 135 126 128 132 123 103 110 119 115 115 115 110 115 116 114 114 113 109 106 113 113 99 95 107 121 126 122 109 110 106 91 55 60 18 339 316
181 155 146 128 122 131 132 127 130 133 123 106 113 113 110 110 117 120 118 113 114 118 123 125 117 118 113 108 94 102 107 103 112 111 98 114 127 140 112 56 12 7 32
138 136 131 124 121 128 127 132 130 120 109 108 106 104 103 101 104 105 114 123 124 129 132 130 134 129 130 134 137 129 112 108 101 114 129 101 96 77 87 79 53 45 30
125 131 126 122 120 123 120 118 115 111 105 105 106 104 104 101 89 65 64 125 114 143 148 151 146 147 154 155 151 148 145 132 118 132 142 137 113 95 78 67 48 45 42
131 124 124 121 120 119 113 109 114 121 120 117 117 120 123 118 115 114 89 44 53 72 83 117 138 132 116 122 112 105 107 119 153 132 130 119 107 91 76 57 57 45 40